This is the latest recevied weather packets stored in our database for station/object YO6IKB-10. If no packets are shown the sender has not sent any weather packets the latest 10 day(s).
| Time | Temp. | Humidity | Pressure | Rain* | Wind** | Luminosity | Snow |
|---|---|---|---|---|---|---|---|
| 1778069655 | 28.33° C | 31% | 1008.8 hPa | 0 mm | - | - | - |
| 1778069355 | 28.33° C | 30% | 1008.8 hPa | 0 mm | - | - | - |
| 1778069055 | 27.78° C | 30% | 1008.7 hPa | 0 mm | - | - | - |
| 1778068754 | 27.78° C | 28% | 1008.7 hPa | 0 mm | - | - | - |
| 1778068454 | 28.89° C | 28% | 1008.7 hPa | 0 mm | - | - | - |
| 1778068154 | 29.44° C | 29% | 1008.7 hPa | 0 mm | - | - | - |
| 1778067853 | 29.44° C | 30% | 1008.7 hPa | 0 mm | - | - | - |
| 1778067553 | 29.44° C | 31% | 1008.7 hPa | 0 mm | - | - | - |
| 1778067253 | 29.44° C | 32% | 1008.6 hPa | 0 mm | - | - | - |
| 1778066953 | 28.89° C | 32% | 1008.6 hPa | 0 mm | - | - | - |
| 1778066652 | 28.33° C | 34% | 1008.6 hPa | 0 mm | - | - | - |
| 1778066352 | 27.78° C | 34% | 1008.6 hPa | 0 mm | - | - | - |
| 1778066052 | 26.67° C | 34% | 1008.7 hPa | 0 mm | - | - | - |
| 1778065751 | 26.11° C | 35% | 1008.8 hPa | 0 mm | - | - | - |
| 1778065451 | 25.56° C | 34% | 1008.8 hPa | 0 mm | - | - | - |
| 1778065151 | 26.11° C | 34% | 1009.1 hPa | 0 mm | - | - | - |
| 1778064851 | 26.11° C | 34% | 1009.3 hPa | 0 mm | - | - | - |
| 1778064550 | 26.11° C | 34% | 1009.2 hPa | 0 mm | - | - | - |
| 1778064250 | 26.11° C | 35% | 1009.5 hPa | 0 mm | - | - | - |
| 1778063950 | 26.67° C | 35% | 1009.6 hPa | 0 mm | - | - | - |
| 1778063649 | 26.67° C | 36% | 1009.7 hPa | 0 mm | - | - | - |
| 1778063349 | 25.56° C | 37% | 1009.8 hPa | 0 mm | - | - | - |
| 1778063049 | 25.56° C | 37% | 1009.9 hPa | 0 mm | - | - | - |
| 1778062748 | 25° C | 37% | 1010 hPa | 0 mm | - | - | - |
| 1778062448 | 25° C | 36% | 1010 hPa | 0 mm | - | - | - |
* Rain latest hour (hover to see other rain measurements)
** Current wind speed in m/s (hover to see current wind gust speed)